NKS2060 KDTW-KMCO

Flight info

Callsign NKS2060
Flight time N/A
Altitude 36000
Route CLVIN3 STAZE OCASE Q65 LORNN/N0448F350 Q65 DAREE ZJAYX GRNCH5
Aircraft A320/M-SDE3FGHIRWY/LB1

Departure

Time N/A
Airport Detroit Metropolitan Wayne County Airport (KDTW)

Arrival

Time 2026-04-25 00:00
Airport Orlando International Airport (KMCO)
Time Latitude Longitude Altitude Speed Heading
2026-04-24 23:30 30.75104 -82.72953 34988 ft 469 kts 143°
2026-04-24 23:31 30.72518 -82.70621 34984 ft 471 kts 143°
2026-04-24 23:31 30.67331 -82.65957 34994 ft 472 kts 143°
2026-04-24 23:32 30.63015 -82.62080 34990 ft 472 kts 143°
2026-04-24 23:33 30.61117 -82.60370 34997 ft 471 kts 143°
2026-04-24 23:33 30.55944 -82.55713 34985 ft 471 kts 143°
2026-04-24 23:34 30.50748 -82.51051 34998 ft 472 kts 143°
2026-04-24 23:34 30.45541 -82.46396 35005 ft 472 kts 143°
2026-04-24 23:35 30.40332 -82.41745 35011 ft 473 kts 143°
2026-04-24 23:35 30.35122 -82.37088 35021 ft 473 kts 143°
2026-04-24 23:36 30.29946 -82.32468 35018 ft 472 kts 143°
2026-04-24 23:36 30.24740 -82.27829 35016 ft 473 kts 144°
2026-04-24 23:36 30.22050 -82.25621 34644 ft 473 kts 152°
2026-04-24 23:37 30.19117 -82.23961 34404 ft 467 kts 161°
2026-04-24 23:37 30.16019 -82.22892 34158 ft 463 kts 172°
2026-04-24 23:37 30.09654 -82.21604 33661 ft 465 kts 173°
2026-04-24 23:38 30.06458 -82.20976 33233 ft 467 kts 173°
2026-04-24 23:38 30.03251 -82.20348 32552 ft 468 kts 173°
2026-04-24 23:38 30.00037 -82.19717 31846 ft 468 kts 173°
2026-04-24 23:38 29.96818 -82.19086 31169 ft 469 kts 173°
2026-04-24 23:39 29.93607 -82.18454 30662 ft 469 kts 172°
2026-04-24 23:39 29.90391 -82.17819 30187 ft 468 kts 172°
2026-04-24 23:39 29.87191 -82.17184 29564 ft 465 kts 172°
2026-04-24 23:39 29.84015 -82.16547 29001 ft 460 kts 172°
2026-04-24 23:40 29.80880 -82.15915 28420 ft 456 kts 172°
2026-04-24 23:40 29.77771 -82.15288 27843 ft 452 kts 172°
2026-04-24 23:40 29.74689 -82.14670 27274 ft 448 kts 172°
2026-04-24 23:40 29.71625 -82.14058 26709 ft 445 kts 172°
2026-04-24 23:41 29.68580 -82.13453 26150 ft 442 kts 172°
2026-04-24 23:41 29.65554 -82.12855 25590 ft 440 kts 172°
2026-04-24 23:41 29.62551 -82.12261 25045 ft 437 kts 172°
2026-04-24 23:41 29.59554 -82.11672 24499 ft 435 kts 172°
2026-04-24 23:42 29.56571 -82.11083 23960 ft 433 kts 172°
2026-04-24 23:42 29.53611 -82.10494 23426 ft 431 kts 172°
2026-04-24 23:42 29.50701 -82.09914 22888 ft 428 kts 172°
2026-04-24 23:42 29.47777 -82.09332 22381 ft 424 kts 172°
2026-04-24 23:43 29.44877 -82.08756 21907 ft 421 kts 172°
2026-04-24 23:43 29.42002 -82.08183 21431 ft 418 kts 172°
2026-04-24 23:43 29.39146 -82.07618 20955 ft 414 kts 172°
2026-04-24 23:43 29.36313 -82.07064 20490 ft 411 kts 172°
2026-04-24 23:44 29.33505 -82.06515 20005 ft 408 kts 172°
2026-04-24 23:44 29.30762 -82.05713 19525 ft 408 kts 162°
2026-04-24 23:44 29.28175 -82.04379 19020 ft 407 kts 152°
2026-04-24 23:44 29.25703 -82.02799 18531 ft 405 kts 152°
2026-04-24 23:45 29.23239 -82.01236 17978 ft 404 kts 152°
2026-04-24 23:45 29.20784 -81.99689 17450 ft 401 kts 152°
2026-04-24 23:45 29.19167 -81.98672 17102 ft 399 kts 152°
2026-04-24 23:45 29.16542 -81.97024 16573 ft 395 kts 152°
2026-04-24 23:46 29.14130 -81.95512 16036 ft 394 kts 152°
2026-04-24 23:46 29.11766 -81.94034 15652 ft 380 kts 152°
2026-04-24 23:46 29.09498 -81.92616 15015 ft 373 kts 152°
2026-04-24 23:46 29.07287 -81.91150 14510 ft 362 kts 146°
2026-04-24 23:47 29.05363 -81.89344 14013 ft 356 kts 136°
2026-04-24 23:47 29.03560 -81.87389 13478 ft 357 kts 137°
2026-04-24 23:47 29.01752 -81.85445 12960 ft 356 kts 137°
2026-04-24 23:47 28.99947 -81.83515 12441 ft 355 kts 137°
2026-04-24 23:48 28.98171 -81.81559 11931 ft 352 kts 132°
2026-04-24 23:48 28.96662 -81.79400 11430 ft 344 kts 128°
2026-04-24 23:48 28.95221 -81.77253 10942 ft 338 kts 128°
2026-04-24 23:48 28.93788 -81.75124 10443 ft 339 kts 128°
2026-04-24 23:49 28.92365 -81.73016 10276 ft 329 kts 128°
2026-04-24 23:49 28.90997 -81.70987 10150 ft 318 kts 128°
2026-04-24 23:49 28.89669 -81.69018 10034 ft 308 kts 128°
2026-04-24 23:49 28.88810 -81.67746 9917 ft 303 kts 128°
2026-04-24 23:50 28.87520 -81.65838 9491 ft 303 kts 128°
2026-04-24 23:50 28.86246 -81.63953 8963 ft 299 kts 129°
2026-04-24 23:50 28.84984 -81.62081 8488 ft 295 kts 128°
2026-04-24 23:50 28.83731 -81.60225 7940 ft 294 kts 128°
2026-04-24 23:51 28.82490 -81.58394 7416 ft 292 kts 128°
2026-04-24 23:51 28.81274 -81.56601 7230 ft 277 kts 129°
2026-04-24 23:51 28.80121 -81.54896 6958 ft 268 kts 129°
2026-04-24 23:51 28.79009 -81.53242 6831 ft 257 kts 127°
2026-04-24 23:52 28.77965 -81.51519 6704 ft 262 kts 124°
2026-04-24 23:52 28.76972 -81.49764 6507 ft 263 kts 124°
2026-04-24 23:52 28.75999 -81.48008 6286 ft 260 kts 123°
2026-04-24 23:52 28.75042 -81.46277 6127 ft 254 kts 123°
2026-04-24 23:53 28.74117 -81.44610 5995 ft 245 kts 123°
2026-04-24 23:53 28.73402 -81.42882 5989 ft 242 kts 109°
2026-04-24 23:53 28.72862 -81.41067 5987 ft 241 kts 109°
2026-04-24 23:53 28.72309 -81.39269 5903 ft 240 kts 110°
2026-04-24 23:54 28.71758 -81.37489 5625 ft 237 kts 110°
2026-04-24 23:54 28.71207 -81.35720 5311 ft 237 kts 111°
2026-04-24 23:54 28.70341 -81.34155 5049 ft 233 kts 138°
2026-04-24 23:54 28.68986 -81.33190 4988 ft 231 kts 163°
2026-04-24 23:55 28.67413 -81.32920 4740 ft 229 kts 180°
2026-04-24 23:55 28.65817 -81.32912 4417 ft 229 kts 181°
2026-04-24 23:55 28.64204 -81.32906 4121 ft 229 kts 180°
2026-04-24 23:55 28.62632 -81.32890 3913 ft 219 kts 180°
2026-04-24 23:56 28.61171 -81.32874 3642 ft 212 kts 180°
2026-04-24 23:56 28.59699 -81.32858 3278 ft 203 kts 179°
2026-04-24 23:56 28.58315 -81.32843 2893 ft 196 kts 179°
2026-04-24 23:56 28.56970 -81.32829 2516 ft 184 kts 178°
2026-04-24 23:57 28.55719 -81.32816 2209 ft 172 kts 178°
2026-04-24 23:57 28.54565 -81.32804 2008 ft 158 kts 178°
2026-04-24 23:57 28.53498 -81.32792 1793 ft 150 kts 177°
2026-04-24 23:57 28.52462 -81.32781 1589 ft 148 kts 177°
2026-04-24 23:58 28.51442 -81.32769 1386 ft 146 kts 177°
2026-04-24 23:58 28.50424 -81.32758 1194 ft 146 kts 178°
2026-04-24 23:58 28.49409 -81.32750 993 ft 145 kts 175°
2026-04-24 23:58 28.48394 -81.32739 832 ft 145 kts 177°
2026-04-24 23:59 28.47379 -81.32726 643 ft 146 kts 177°
2026-04-24 23:59 28.46398 -81.32716 471 ft 141 kts 180°
2026-04-24 23:59 28.45437 -81.32711 274 ft 137 kts 177°
2026-04-24 23:59 28.44492 -81.32698 111 ft 135 kts 177°
2026-04-25 00:00 28.43663 -81.32686 102 ft 98 kts 179°
2026-04-25 00:00 28.43137 -81.32678 100 ft 58 kts 180°
2026-04-25 00:00 28.42790 -81.32671 100 ft 31 kts 176°
2026-04-25 00:00 28.42627 -81.32634 100 ft 22 kts 151°
2026-04-25 00:01 28.42560 -81.32505 101 ft 18 kts 112°
2026-04-25 00:01 28.42504 -81.32379 101 ft 16 kts 121°
2026-04-25 00:01 28.42455 -81.32289 103 ft 13 kts 121°
2026-04-25 00:01 28.42413 -81.32206 106 ft 9 kts 120°
2026-04-25 00:02 28.42379 -81.32140 106 ft 11 kts 120°
2026-04-25 00:02 28.42341 -81.32049 104 ft 15 kts 96°
2026-04-25 00:02 28.42346 -81.31922 101 ft 15 kts 89°
2026-04-25 00:02 28.42366 -81.31834 99 ft 11 kts 27°
2026-04-25 00:03 28.42446 -81.31833 101 ft 12 kts 360°
2026-04-25 00:03 28.42535 -81.31834 101 ft 13 kts 360°
2026-04-25 00:03 28.42632 -81.31834 102 ft 15 kts 360°
2026-04-25 00:03 28.42743 -81.31835 100 ft 18 kts 359°
2026-04-25 00:04 28.42879 -81.31837 98 ft 21 kts 359°
2026-04-25 00:04 28.43030 -81.31839 99 ft 22 kts
2026-04-25 00:04 28.43161 -81.31842 100 ft 16 kts 359°
2026-04-25 00:04 28.43241 -81.31801 99 ft 13 kts 55°
2026-04-25 00:05 28.43282 -81.31715 98 ft 12 kts 66°
2026-04-25 00:05 28.43281 -81.31633 94 ft 6 kts 106°
2026-04-25 00:05 28.43285 -81.31585 95 ft 5 kts 49°
2026-04-25 00:05 28.43308 -81.31575 96 ft 2 kts 13°
2026-04-25 00:06 28.43325 -81.31570 94 ft 1 kts 14°
2026-04-25 00:06 28.43331 -81.31568 94 ft 1 kts 15°
2026-04-25 00:06 28.43332 -81.31568 94 ft 0 kts 15°